Time,TemperatureF,DewpointF,PressureIn,WindDirection,WindDirectionDegrees,WindSpeedMPH,WindSpeedGustMPH,Humidity,HourlyPrecipIn,Conditions,Clouds,dailyrainin,SolarRadiationWatts/m^2,SoftwareType,DateUTC
2013-01-07 00:12:00,26.0,21.0,-100.00,West,259,2.0,6.0,82,0.00,,,0.00,1.000000,,2013-01-07 05:12:00,
2013-01-07 00:22:00,26.0,21.0,-100.00,West,259,2.0,6.0,82,0.00,,,0.00,1.000000,,2013-01-07 05:22:00,
2013-01-07 00:33:00,26.0,21.0,-100.00,West,259,2.0,6.0,82,0.00,,,0.00,1.000000,,2013-01-07 05:33:00,
2013-01-07 00:42:00,26.0,21.0,-100.00,West,259,2.0,6.0,82,0.00,,,0.00,1.000000,,2013-01-07 05:42:00,
2013-01-07 01:12:00,27.0,22.0,-100.00,WNW,287,3.0,5.0,80,0.00,,,0.00,1.000000,,2013-01-07 06:12:00,
2013-01-07 01:22:00,27.0,22.0,-100.00,WNW,287,3.0,5.0,80,0.00,,,0.00,1.000000,,2013-01-07 06:22:00,
2013-01-07 01:32:00,27.0,22.0,-100.00,WNW,287,3.0,5.0,80,0.00,,,0.00,1.000000,,2013-01-07 06:32:00,
2013-01-07 01:42:00,27.0,22.0,-100.00,WNW,287,3.0,5.0,80,0.00,,,0.00,1.000000,,2013-01-07 06:42:00,
2013-01-07 02:12:00,27.0,20.0,-100.00,SSW,204,3.0,6.0,76,0.00,,,0.00,1.000000,,2013-01-07 07:12:00,
2013-01-07 02:22:00,27.0,20.0,-100.00,SSW,204,3.0,6.0,76,0.00,,,0.00,1.000000,,2013-01-07 07:22:00,
2013-01-07 02:33:00,27.0,20.0,-100.00,SSW,204,3.0,6.0,76,0.00,,,0.00,1.000000,,2013-01-07 07:33:00,
2013-01-07 02:42:00,27.0,20.0,-100.00,SSW,204,3.0,6.0,76,0.00,,,0.00,1.000000,,2013-01-07 07:42:00,
2013-01-07 03:12:00,27.0,21.0,-100.00,SSW,199,3.0,4.0,79,0.00,,,0.00,1.000000,,2013-01-07 08:12:00,
2013-01-07 03:22:00,27.0,21.0,-100.00,SSW,199,3.0,4.0,79,0.00,,,0.00,1.000000,,2013-01-07 08:22:00,
2013-01-07 03:33:00,27.0,21.0,-100.00,SSW,199,3.0,4.0,79,0.00,,,0.00,1.000000,,2013-01-07 08:33:00,
2013-01-07 03:43:00,27.0,21.0,-100.00,SSW,199,3.0,4.0,79,0.00,,,0.00,1.000000,,2013-01-07 08:43:00,
2013-01-07 04:02:00,27.0,21.0,-100.00,SSW,210,4.0,5.0,79,0.00,,,0.00,1.000000,,2013-01-07 09:02:00,
2013-01-07 04:12:00,27.0,21.0,-100.00,SSW,210,4.0,5.0,79,0.00,,,0.00,1.000000,,2013-01-07 09:12:00,
2013-01-07 04:23:00,27.0,21.0,-100.00,SSW,210,4.0,5.0,79,0.00,,,0.00,1.000000,,2013-01-07 09:23:00,
2013-01-07 04:32:00,27.0,21.0,-100.00,SSW,210,4.0,5.0,79,0.00,,,0.00,1.000000,,2013-01-07 09:32:00,
2013-01-07 04:42:00,27.0,21.0,-100.00,SSW,210,4.0,5.0,79,0.00,,,0.00,1.000000,,2013-01-07 09:42:00,
2013-01-07 05:02:00,27.0,22.0,-100.00,SSW,205,4.0,8.0,81,0.00,,,0.00,0.000000,,2013-01-07 10:02:00,
2013-01-07 05:12:00,27.0,22.0,-100.00,SSW,205,4.0,8.0,81,0.00,,,0.00,0.000000,,2013-01-07 10:12:00,
2013-01-07 05:22:00,27.0,22.0,-100.00,SSW,205,4.0,8.0,81,0.00,,,0.00,0.000000,,2013-01-07 10:22:00,
2013-01-07 05:32:00,27.0,22.0,-100.00,SSW,205,4.0,8.0,81,0.00,,,0.00,0.000000,,2013-01-07 10:32:00,
2013-01-07 05:42:00,27.0,22.0,-100.00,SSW,205,4.0,8.0,81,0.00,,,0.00,0.000000,,2013-01-07 10:42:00,
2013-01-07 06:12:00,26.0,22.0,-100.00,SSW,202,4.0,9.0,83,0.00,,,0.00,1.000000,,2013-01-07 11:12:00,
2013-01-07 06:23:00,26.0,22.0,-100.00,SSW,202,4.0,9.0,83,0.00,,,0.00,1.000000,,2013-01-07 11:23:00,
2013-01-07 06:33:00,26.0,22.0,-100.00,SSW,202,4.0,9.0,83,0.00,,,0.00,1.000000,,2013-01-07 11:33:00,
2013-01-07 06:43:00,26.0,22.0,-100.00,SSW,202,4.0,9.0,83,0.00,,,0.00,1.000000,,2013-01-07 11:43:00,
2013-01-07 07:12:00,24.0,21.0,-100.00,South,190,4.0,8.0,88,0.00,,,0.00,1.000000,,2013-01-07 12:12:00,
2013-01-07 07:23:00,24.0,21.0,-100.00,South,190,4.0,8.0,88,0.00,,,0.00,1.000000,,2013-01-07 12:23:00,
2013-01-07 07:33:00,24.0,21.0,-100.00,South,190,4.0,8.0,88,0.00,,,0.00,1.000000,,2013-01-07 12:33:00,
2013-01-07 07:43:00,24.0,21.0,-100.00,South,190,4.0,8.0,88,0.00,,,0.00,1.000000,,2013-01-07 12:43:00,
2013-01-07 08:12:00,23.0,20.0,-100.00,SSW,192,5.0,8.0,89,0.00,,,0.00,1.000000,,2013-01-07 13:12:00,
2013-01-07 08:23:00,23.0,20.0,-100.00,SSW,192,5.0,8.0,89,0.00,,,0.00,1.000000,,2013-01-07 13:23:00,
2013-01-07 08:33:00,23.0,20.0,-100.00,SSW,192,5.0,8.0,89,0.00,,,0.00,1.000000,,2013-01-07 13:33:00,
2013-01-07 08:43:00,23.0,20.0,-100.00,SSW,192,5.0,8.0,89,0.00,,,0.00,1.000000,,2013-01-07 13:43:00,
2013-01-07 09:13:00,23.0,20.0,-100.00,South,186,6.0,10.0,89,0.00,,,0.00,13.000000,,2013-01-07 14:13:00,
2013-01-07 09:23:00,23.0,20.0,-100.00,South,186,6.0,10.0,89,0.00,,,0.00,13.000000,,2013-01-07 14:23:00,
2013-01-07 09:33:00,23.0,20.0,-100.00,South,186,6.0,10.0,89,0.00,,,0.00,13.000000,,2013-01-07 14:33:00,
2013-01-07 09:43:00,23.0,20.0,-100.00,South,186,6.0,10.0,89,0.00,,,0.00,13.000000,,2013-01-07 14:43:00,
2013-01-07 10:12:00,27.0,21.0,-100.00,SSW,206,11.0,17.0,79,0.00,,,0.00,52.000000,,2013-01-07 15:12:00,
2013-01-07 10:23:00,27.0,21.0,-100.00,SSW,206,11.0,17.0,79,0.00,,,0.00,52.000000,,2013-01-07 15:23:00,
2013-01-07 10:33:00,27.0,21.0,-100.00,SSW,206,11.0,17.0,79,0.00,,,0.00,52.000000,,2013-01-07 15:33:00,
2013-01-07 10:43:00,27.0,21.0,-100.00,SSW,206,11.0,17.0,79,0.00,,,0.00,52.000000,,2013-01-07 15:43:00,
2013-01-07 11:12:00,31.0,22.0,-100.00,SW,221,16.0,28.0,69,0.00,,,0.00,230.000000,,2013-01-07 16:12:00,
2013-01-07 11:23:00,31.0,22.0,-100.00,SW,221,16.0,28.0,69,0.00,,,0.00,230.000000,,2013-01-07 16:23:00,
2013-01-07 11:33:00,31.0,22.0,-100.00,SW,221,16.0,28.0,69,0.00,,,0.00,230.000000,,2013-01-07 16:33:00,
2013-01-07 11:43:00,31.0,22.0,-100.00,SW,221,16.0,28.0,69,0.00,,,0.00,230.000000,,2013-01-07 16:43:00,
2013-01-07 12:12:00,33.0,22.0,-100.00,SW,217,13.0,25.0,63,0.00,,,0.00,340.000000,,2013-01-07 17:12:00,
2013-01-07 12:23:00,33.0,22.0,-100.00,SW,217,13.0,25.0,63,0.00,,,0.00,340.000000,,2013-01-07 17:23:00,
2013-01-07 12:33:00,33.0,22.0,-100.00,SW,217,13.0,25.0,63,0.00,,,0.00,340.000000,,2013-01-07 17:33:00,
2013-01-07 12:42:00,33.0,22.0,-100.00,SW,217,13.0,25.0,63,0.00,,,0.00,340.000000,,2013-01-07 17:42:00,
2013-01-07 13:13:00,36.0,22.0,-100.00,SW,220,14.0,27.0,56,0.00,,,0.00,395.000000,,2013-01-07 18:13:00,
2013-01-07 13:23:00,36.0,22.0,-100.00,SW,220,14.0,27.0,56,0.00,,,0.00,395.000000,,2013-01-07 18:23:00,
2013-01-07 13:33:00,36.0,22.0,-100.00,SW,220,14.0,27.0,56,0.00,,,0.00,395.000000,,2013-01-07 18:33:00,
2013-01-07 13:43:00,36.0,22.0,-100.00,SW,220,14.0,27.0,56,0.00,,,0.00,395.000000,,2013-01-07 18:43:00,
2013-01-07 14:12:00,37.0,21.0,-100.00,SW,218,16.0,28.0,52,0.00,,,0.00,395.000000,,2013-01-07 19:12:00,
2013-01-07 14:23:00,37.0,21.0,-100.00,SW,218,16.0,28.0,52,0.00,,,0.00,395.000000,,2013-01-07 19:23:00,
2013-01-07 14:33:00,37.0,21.0,-100.00,SW,218,16.0,28.0,52,0.00,,,0.00,395.000000,,2013-01-07 19:33:00,
2013-01-07 14:43:00,37.0,21.0,-100.00,SW,218,16.0,28.0,52,0.00,,,0.00,395.000000,,2013-01-07 19:43:00,
2013-01-07 15:13:00,38.0,21.0,-100.00,SW,227,14.0,23.0,50,0.00,,,0.00,351.000000,,2013-01-07 20:13:00,
2013-01-07 15:23:00,38.0,21.0,-100.00,SW,227,14.0,23.0,50,0.00,,,0.00,351.000000,,2013-01-07 20:23:00,
2013-01-07 15:33:00,38.0,21.0,-100.00,SW,227,14.0,23.0,50,0.00,,,0.00,351.000000,,2013-01-07 20:33:00,
2013-01-07 15:43:00,38.0,21.0,-100.00,SW,227,14.0,23.0,50,0.00,,,0.00,351.000000,,2013-01-07 20:43:00,
2013-01-07 16:12:00,38.0,21.0,-100.00,SSW,212,11.0,27.0,49,0.00,,,0.00,251.000000,,2013-01-07 21:12:00,
2013-01-07 16:23:00,38.0,21.0,-100.00,SSW,212,11.0,27.0,49,0.00,,,0.00,251.000000,,2013-01-07 21:23:00,
2013-01-07 16:33:00,38.0,21.0,-100.00,SSW,212,11.0,27.0,49,0.00,,,0.00,251.000000,,2013-01-07 21:33:00,
2013-01-07 16:43:00,38.0,21.0,-100.00,SSW,212,11.0,27.0,49,0.00,,,0.00,251.000000,,2013-01-07 21:43:00,
2013-01-07 17:12:00,35.0,18.0,-100.00,SW,217,11.0,25.0,49,0.00,,,0.00,122.000000,,2013-01-07 22:12:00,
2013-01-07 17:23:00,35.0,18.0,-100.00,SW,217,11.0,25.0,49,0.00,,,0.00,122.000000,,2013-01-07 22:23:00,
2013-01-07 17:33:00,35.0,18.0,-100.00,SW,217,11.0,25.0,49,0.00,,,0.00,122.000000,,2013-01-07 22:33:00,
2013-01-07 17:43:00,35.0,18.0,-100.00,SW,217,11.0,25.0,49,0.00,,,0.00,122.000000,,2013-01-07 22:43:00,
2013-01-07 18:12:00,34.0,17.0,-100.00,SSW,205,10.0,25.0,50,0.00,,,0.00,8.000000,,2013-01-07 23:12:00,
2013-01-07 18:23:00,34.0,17.0,-100.00,SSW,205,10.0,25.0,50,0.00,,,0.00,8.000000,,2013-01-07 23:23:00,
2013-01-07 18:33:00,34.0,17.0,-100.00,SSW,205,10.0,25.0,50,0.00,,,0.00,8.000000,,2013-01-07 23:33:00,
2013-01-07 18:43:00,34.0,17.0,-100.00,SSW,205,10.0,25.0,50,0.00,,,0.00,8.000000,,2013-01-07 23:43:00,
2013-01-07 19:12:00,33.0,16.0,-100.00,SW,217,12.0,25.0,50,0.00,,,0.00,1.000000,,2013-01-08 00:12:00,
2013-01-07 19:23:00,33.0,16.0,-100.00,SW,217,12.0,25.0,50,0.00,,,0.00,1.000000,,2013-01-08 00:23:00,
2013-01-07 19:33:00,33.0,16.0,-100.00,SW,217,12.0,25.0,50,0.00,,,0.00,1.000000,,2013-01-08 00:33:00,
2013-01-07 19:42:00,33.0,16.0,-100.00,SW,217,12.0,25.0,50,0.00,,,0.00,1.000000,,2013-01-08 00:42:00,
2013-01-07 20:12:00,33.0,16.0,-100.00,SW,227,12.0,21.0,50,0.00,,,0.00,1.000000,,2013-01-08 01:12:00,
2013-01-07 20:22:00,33.0,16.0,-100.00,SW,227,12.0,21.0,50,0.00,,,0.00,1.000000,,2013-01-08 01:22:00,
2013-01-07 20:33:00,33.0,16.0,-100.00,SW,227,12.0,21.0,50,0.00,,,0.00,1.000000,,2013-01-08 01:33:00,
2013-01-07 20:42:00,33.0,16.0,-100.00,SW,227,12.0,21.0,50,0.00,,,0.00,1.000000,,2013-01-08 01:42:00,
2013-01-07 21:12:00,32.0,17.0,-100.00,SW,236,14.0,27.0,53,0.00,,,0.00,0.000000,,2013-01-08 02:12:00,
2013-01-07 21:22:00,32.0,17.0,-100.00,SW,236,14.0,27.0,53,0.00,,,0.00,0.000000,,2013-01-08 02:22:00,
2013-01-07 21:33:00,32.0,17.0,-100.00,SW,236,14.0,27.0,53,0.00,,,0.00,0.000000,,2013-01-08 02:33:00,
2013-01-07 21:42:00,32.0,17.0,-100.00,SW,236,14.0,27.0,53,0.00,,,0.00,0.000000,,2013-01-08 02:42:00,
2013-01-07 22:12:00,32.0,19.0,-100.00,SW,230,12.0,21.0,57,0.00,,,0.00,0.000000,,2013-01-08 03:12:00,
2013-01-07 22:22:00,32.0,19.0,-100.00,SW,230,12.0,21.0,57,0.00,,,0.00,0.000000,,2013-01-08 03:22:00,
2013-01-07 22:33:00,32.0,19.0,-100.00,SW,230,12.0,21.0,57,0.00,,,0.00,0.000000,,2013-01-08 03:33:00,
2013-01-07 22:43:00,32.0,19.0,-100.00,SW,230,12.0,21.0,57,0.00,,,0.00,0.000000,,2013-01-08 03:43:00,
2013-01-07 23:12:00,31.0,20.0,-100.00,SW,227,12.0,20.0,62,0.00,,,0.00,1.000000,,2013-01-08 04:12:00,
2013-01-07 23:22:00,31.0,20.0,-100.00,SW,227,12.0,20.0,62,0.00,,,0.00,1.000000,,2013-01-08 04:22:00,
2013-01-07 23:32:00,31.0,20.0,-100.00,SW,227,12.0,20.0,62,0.00,,,0.00,1.000000,,2013-01-08 04:32:00,
2013-01-07 23:42:00,31.0,20.0,-100.00,SW,227,12.0,20.0,62,0.00,,,0.00,1.000000,,2013-01-08 04:42:00,